Temp
13 13 13 13 14 13 13 13 12 12 12 12 12 11 11 11 11 11 11 10 10 11 11 11 11 11 11 10 10 10 11 11 11 11 11 11 11 11 11 11 11 11
13 13 13 13 14 13 13 13 13 13 13 12 12 12 11 11 11 11 11 10 10 10 10 10 10 10 10 10 10 10 10 10 11 11 11 11 11 11 11 11 11 11
13 13 13 13 14 13 13 13 13 13 13 13 13 12 12 11 11 11 11 11 10 10 10 10 10 10 10 10 10 10 10 10 10 10 10 11 11 11 11 11 11 11
14 13 13 13 13 13 13 13 13 13 13 13 13 12 12 12 11 11 11 11 11 11 11 11 11 11 11 10 10 10 10 10 10 10 10 10 11 11 11 11 11 11
13 13 12 12 13 13 13 13 13 13 13 13 13 13 12 12 12 11 11 11 11 11 11 11 11 11 11 11 11 10 10 10 10 10 10 10 11 11 11 11 11 11
12 12 12 12 12 13 13 13 13 13 13 13 13 13 12 12 12 12 12 11 11 11 11 11 11 11 11 11 11 11 10 10 10 10 10 10 10 10 10 10 10 10
12 12 12 12 12 13 13 13 13 12 12 13 13 13 13 12 12 12 12 11 11 11 11 11 11 11 10 10 10 10 10 10 10 10 10 10 10 10 10 10 10 10
12 12 12 12 12 12 12 13 13 12 12 13 13 13 12 12 12 12 11 11 11 11 11 11 11 11 10 10 10 10 10 10 10 10 10 10 10 10 10 10 10 10
11 11 12 12 12 12 12 12 12 12 12 12 12 12 12 12 12 11 11 11 11 10 10 10 10 10 10 10 10 10 10 9 9 9 9 9 9 10 10 10 10 10
11 11 11 11 11 11 11 11 11 11 11 12 12 12 12 12 11 11 11 10 10 10 10 10 10 10 10 10 10 10 10 9 9 9 9 9 9 9 9 9 9 9
11 11 11 11 11 11 11 11 11 11 11 11 12 12 11 11 11 11 11 11 10 10 10 10 10 10 10 10 10 10 10 9 9 9 9 9 9 8 8 9 9 9
11 10 10 10 11 11 11 11 11 11 11 11 12 12 11 11 11 11 11 11 11 10 10 10 10 10 10 10 10 10 9 9 9 9 9 9 9 8 8 8 8 9
10 10 10 10 10 10 10 11 11 10 11 11 11 11 11 11 11 11 11 11 11 11 11 10 10 10 10 10 10 10 9 9 9 9 9 9 9 9 8 8 8 8
10 10 10 10 10 10 10 10 11 11 11 11 11 11 11 11 11 11 11 11 11 11 11 11 10 10 10 10 10 9 9 9 9 9 9 9 9 9 8 8 8 8
10 10 10 10 9 10 10 10 11 11 11 11 11 11 11 11 11 11 11 11 11 11 10 10 10 10 10 10 9 9 9 9 9 9 9 9 9 9 9 9 9 9
10 10 10 10 10 10 10 10 11 11 10 10 10 10 10 10 10 10 10 10 10 10 10 10 10 10 10 10 9 9 9 9 9 9 9 9 9 9 9 9 9 9
10 10 10 10 10 10 10 10 10 10 10 10 10 10 10 10 10 10 10 10 10 10 10 10 9 9 9 9 9 9 9 9 9 9 9 9 9 9 9 9 9 9
9 9 9 10 10 10 10 10 10 10 10 10 10 9 9 9 9 10 10 10 10 10 9 9 9 9 9 9 9 9 9 9 9 9 9 8 8 9 9 9 9 9
9 9 9 9 9 9 9 9 9 9 9 9 9 9 9 9 9 9 9 10 10 10 9 9 9 9 9 9 9 9 9 9 8 9 9 9 9 9 9 9 9 9
9 9 9 9 9 9 9 9 9 9 9 9 9 9 9 9 9 9 9 9 10 9 9 9 9 9 9 9 8 8 8 8 8 8 8 8 9 9 9 9 9 9
9 9 9 9 9 9 9 9 8 8 8 8 8 8 9 9 9 9 9 9 9 9 9 9 9 9 8 8 8 8 8 8 8 8 8 8 8 8 8 9 9 9
9 9 9 9 9 9 9 9 9 9 9 9 8 9 9 9 9 9 9 9 9 9 9 9 9 8 8 8 8 8 8 8 8 8 8 8 8 8 8 8 8 8
9 9 9 9 9 9 9 9 9 9 9 9 9 9 9 9 9 9 9 9 9 9 9 8 8 8 8 8 8 8 8 7 7 7 7 7 7 8 8 8 8 8
8 8 8 9 9 9 9 9 9 9 9 9 9 9 8 8 8 8 8 8 8 8 8 8 8 8 8 8 8 8 8 7 7 7 7 7 7 7 7 7 7 7
8 8 8 8 8 8 8 8 8 8 8 8 8 8 8 8 8 8 8 8 8 8 8 8 8 8 8 8 8 8 8 7 7 7 7 7 7 7 7 7 7 7
8 8 8 8 8 8 8 8 8 8 8 8 8 8 8 8 8 8 8 8 8 8 8 8 8 8 9 9 8 8 8 7 7 7 7 7 6 6 6 6 6 6
Height
1539 1540 1541 1542 1543 1543 1544 1544 1545 1546 1547 1548 1549 1550 1550 1551 1551 1552 1552 1553 1553 1553 1553 1554 1554 1554 1554 1555 1555 1555 1555 1556 1556 1556 1556 1556 1556 1556 1556 1556 1556 1556
1538 1539 1540 1541 1542 1543 1544 1544 1545 1545 1546 1547 1549 1550 1551 1551 1552 1552 1553 1553 1554 1554 1554 1554 1554 1554 1555 1555 1556 1556 1556 1556 1556 1556 1557 1557 1557 1557 1557 1557 1557 1557
1537 1539 1539 1540 1541 1542 1543 1544 1545 1546 1547 1548 1549 1550 1551 1552 1553 1553 1554 1554 1554 1555 1555 1555 1555 1555 1556 1556 1556 1557 1557 1557 1557 1557 1558 1558 1558 1558 1558 1558 1558 1559
1536 1538 1539 1539 1540 1541 1543 1544 1544 1545 1547 1548 1549 1550 1551 1552 1553 1553 1554 1555 1555 1555 1556 1556 1556 1556 1557 1557 1557 1558 1558 1559 1559 1558 1559 1559 1559 1559 1559 1559 1560 1560
1535 1537 1538 1539 1540 1541 1542 1543 1544 1545 1546 1548 1549 1550 1551 1552 1553 1553 1554 1555 1555 1556 1556 1556 1556 1557 1557 1558 1558 1559 1559 1560 1560 1560 1560 1560 1560 1560 1560 1560 1561 1561
1534 1535 1536 1538 1539 1540 1541 1542 1543 1544 1545 1547 1548 1550 1551 1551 1552 1553 1554 1555 1555 1556 1556 1556 1557 1557 1557 1558 1559 1559 1560 1560 1561 1561 1561 1561 1561 1561 1561 1561 1561 1562
1532 1534 1535 1536 1538 1539 1540 1541 1543 1544 1544 1546 1547 1548 1550 1551 1552 1553 1554 1555 1555 1556 1556 1556 1557 1557 1557 1558 1558 1559 1560 1560 1561 1562 1562 1562 1562 1562 1562 1562 1562 1562
1530 1532 1533 1535 1536 1538 1539 1540 1542 1543 1543 1545 1546 1547 1549 1550 1551 1553 1554 1555 1555 1556 1556 1556 1557 1557 1557 1557 1558 1558 1559 1559 1560 1561 1562 1563 1563 1563 1563 1562 1562 1562
1528 1530 1532 1534 1535 1537 1538 1539 1541 1541 1542 1543 1545 1547 1548 1549 1550 1552 1553 1554 1555 1556 1556 1556 1556 1556 1557 1557 1558 1558 1559 1559 1559 1560 1561 1562 1563 1563 1562 1562 1562 1562
1526 1528 1530 1532 1534 1535 1537 1538 1539 1540 1541 1542 1544 1545 1547 1549 1549 1550 1551 1553 1554 1555 1555 1555 1555 1556 1556 1557 1558 1558 1559 1559 1559 1559 1559 1560 1562 1563 1563 1562 1562 1561
1524 1527 1529 1531 1533 1534 1536 1537 1538 1539 1540 1541 1543 1544 1546 1547 1548 1549 1550 1551 1553 1553 1554 1554 1554 1555 1555 1556 1557 1557 1558 1559 1559 1559 1559 1559 1560 1561 1562 1562 1561 1561
1523 1525 1527 1529 1531 1532 1534 1535 1537 1538 1539 1540 1542 1543 1544 1545 1546 1547 1548 1550 1551 1552 1552 1552 1553 1553 1554 1555 1555 1556 1557 1558 1558 1558 1558 1558 1558 1559 1560 1560 1560 1559
1522 1524 1526 1527 1529 1530 1531 1533 1535 1536 1538 1539 1541 1542 1543 1543 1544 1545 1546 1548 1549 1550 1551 1551 1551 1551 1552 1553 1554 1554 1555 1556 1556 1557 1557 1557 1557 1558 1558 1558 1558 1558
1521 1523 1524 1525 1527 1528 1529 1531 1533 1534 1536 1538 1539 1540 1541 1542 1543 1544 1545 1545 1547 1548 1548 1549 1549 1550 1551 1551 1552 1553 1553 1554 1554 1555 1555 1556 1556 1556 1556 1555 1556 1556
1521 1522 1523 1524 1525 1526 1528 1529 1531 1533 1534 1536 1537 1538 1539 1540 1541 1542 1543 1543 1544 1545 1546 1546 1547 1548 1549 1550 1550 1551 1551 1552 1552 1553 1553 1553 1554 1554 1554 1554 1554 1554
1521 1521 1522 1523 1524 1525 1527 1528 1530 1531 1533 1534 1535 1537 1538 1539 1540 1540 1540 1541 1542 1542 1543 1544 1544 1546 1547 1548 1548 1549 1549 1550 1550 1550 1551 1551 1551 1551 1552 1552 1552 1552
1521 1521 1522 1523 1523 1524 1526 1527 1529 1530 1531 1532 1533 1534 1535 1537 1537 1538 1538 1538 1539 1540 1540 1541 1542 1543 1544 1545 1546 1547 1547 1548 1548 1548 1548 1548 1549 1549 1549 1550 1550 1550
1521 1521 1522 1523 1523 1524 1525 1526 1527 1528 1529 1530 1531 1532 1532 1533 1534 1535 1535 1536 1536 1537 1538 1539 1539 1540 1542 1543 1544 1545 1545 1546 1546 1546 1546 1547 1547 1547 1548 1548 1548 1548
1521 1521 1522 1522 1523 1524 1524 1525 1526 1526 1527 1528 1528 1529 1529 1530 1531 1531 1532 1533 1534 1535 1536 1537 1538 1538 1540 1541 1542 1543 1543 1544 1545 1545 1545 1545 1545 1546 1546 1546 1546 1546
1520 1521 1522 1522 1523 1523 1523 1524 1524 1524 1525 1525 1525 1526 1527 1527 1528 1530 1531 1532 1532 1533 1534 1535 1536 1537 1539 1540 1541 1541 1542 1543 1543 1543 1544 1544 1544 1544 1544 1544 1543 1543
1520 1521 1522 1522 1522 1523 1523 1523 1523 1524 1524 1524 1524 1525 1526 1527 1528 1529 1530 1531 1532 1533 1533 1535 1536 1536 1537 1538 1539 1540 1540 1541 1541 1541 1542 1542 1542 1542 1541 1541 1541 1541
1520 1521 1521 1522 1523 1523 1523 1523 1523 1524 1524 1524 1525 1526 1527 1527 1528 1529 1530 1530 1531 1532 1533 1534 1535 1535 1536 1537 1537 1538 1539 1539 1539 1539 1540 1540 1540 1540 1539 1539 1539 1539
1520 1520 1520 1521 1522 1523 1524 1523 1524 1524 1524 1524 1525 1526 1527 1528 1528 1529 1529 1530 1531 1532 1532 1533 1534 1534 1535 1535 1536 1536 1537 1537 1537 1537 1538 1538 1538 1538 1537 1537 1537 1537
1519 1519 1519 1520 1521 1522 1523 1523 1523 1523 1524 1524 1525 1526 1527 1527 1528 1528 1529 1529 1530 1530 1531 1532 1533 1533 1533 1534 1534 1535 1535 1535 1536 1536 1536 1536 1536 1536 1536 1536 1536 1536
1518 1518 1519 1519 1520 1521 1521 1521 1522 1522 1523 1523 1524 1525 1526 1527 1527 1528 1528 1528 1529 1530 1530 1531 1531 1532 1532 1532 1532 1533 1533 1534 1534 1535 1535 1535 1535 1535 1535 1535 1535 1535
1516 1516 1517 1517 1518 1519 1519 1519 1520 1521 1521 1522 1522 1523 1525 1525 1526 1526 1527 1527 1528 1528 1529 1529 1529 1530 1530 1530 1531 1531 1531 1532 1532 1533 1533 1533 1533 1533 1533 1533 1533 1534
Wind_Speed
7 6 5 5 5 5 6 7 7 8 7 8 8 8 8 8 8 8 8 7 7 7 7 7 7 8 9 9 9 8 8 8 9 10 9 9 10 10 10 10 10 10
10 8 7 7 7 7 7 8 8 8 7 8 8 7 7 7 6 6 6 6 6 6 6 7 7 9 9 9 9 8 7 8 8 9 10 10 10 11 11 11 11 10
11 10 9 9 10 10 9 9 9 8 8 8 8 7 6 6 6 5 5 5 5 5 6 7 7 8 9 9 9 8 7 7 8 9 9 10 10 11 11 11 11 11
14 12 10 9 11 12 11 12 10 8 5 5 6 7 6 6 6 5 5 4 4 5 5 6 7 7 8 8 8 8 7 7 8 8 8 8 10 10 11 11 10 11
15 13 11 10 13 14 13 13 10 6 4 4 6 7 6 6 6 6 6 5 5 4 5 5 5 6 6 6 7 7 7 6 6 7 7 7 8 9 9 9 9 9
14 14 13 11 14 17 15 13 11 8 7 9 9 7 6 6 6 6 6 5 5 4 4 4 4 4 4 4 5 5 5 4 4 4 5 5 5 5 6 7 6 6
15 15 15 13 16 19 16 15 14 10 9 12 12 9 8 8 7 6 5 5 4 4 3 3 3 3 3 3 3 3 4 4 4 3 3 3 3 2 3 4 4 4
16 15 16 15 17 19 17 17 15 11 12 15 13 10 9 9 8 6 5 4 4 3 3 3 3 3 2 2 2 2 2 2 3 3 3 2 2 1 1 1 2 2
16 16 17 16 17 19 17 17 16 13 13 14 13 11 10 10 9 7 6 4 3 3 3 3 3 3 2 2 2 2 3 3 3 2 2 2 2 1 0 1 1 1
14 16 17 17 18 19 17 16 16 15 14 14 14 13 12 12 11 9 8 6 5 5 5 4 4 2 2 2 2 3 4 4 4 4 3 1 2 3 2 1 1 1
14 17 18 17 18 19 18 17 16 16 16 16 16 15 15 14 13 11 10 8 7 8 9 8 7 6 6 6 5 6 7 7 5 4 4 4 4 5 5 4 3 2
15 17 19 19 19 21 20 19 18 17 17 17 16 16 16 17 16 15 13 13 12 12 12 13 11 10 9 9 9 9 10 11 12 10 8 7 8 8 7 7 6 5
14 15 16 18 19 20 21 21 19 17 18 18 17 17 18 18 18 18 18 19 19 17 16 16 17 15 13 13 13 13 13 13 14 13 12 10 10 11 10 10 10 10
11 11 12 12 14 14 15 18 19 18 18 18 17 18 19 19 18 18 20 22 22 21 19 18 18 17 16 15 15 14 14 14 14 14 13 12 12 13 13 12 12 13
8 8 7 8 10 12 12 13 16 18 19 19 18 17 19 19 17 18 20 22 22 22 23 23 21 19 17 17 16 16 16 15 15 15 15 15 15 16 16 16 15 15
4 5 5 5 8 11 12 12 14 17 20 20 19 17 18 18 17 17 18 20 21 22 24 26 26 22 18 17 17 18 18 17 16 15 15 16 17 17 17 17 17 18
2 3 5 6 7 10 12 13 14 15 18 19 20 19 19 18 17 17 17 18 19 21 21 21 21 20 18 17 17 18 17 15 14 13 13 14 15 15 16 16 16 17
3 5 6 7 9 11 13 14 15 15 16 18 19 18 18 18 17 17 17 17 17 17 16 15 15 15 15 15 14 13 12 10 10 10 10 11 12 13 13 14 14 15
4 6 7 8 9 11 12 14 16 16 16 18 19 19 18 18 17 15 14 13 12 10 10 10 10 11 11 11 11 9 8 7 8 8 9 10 11 12 12 12 12 13
3 4 6 7 8 8 10 12 14 16 17 18 19 18 17 15 13 11 9 9 8 7 8 8 8 8 9 9 8 8 8 9 9 9 10 10 11 12 12 12 12 13
2 1 3 4 5 5 6 8 10 11 12 12 11 10 10 9 8 8 8 7 7 7 7 7 7 7 8 8 8 9 9 9 9 8 7 7 8 8 9 10 11 12
4 4 4 3 4 4 4 5 6 7 7 6 6 6 7 7 7 7 7 7 7 8 8 8 8 8 8 9 9 10 9 8 7 5 5 5 6 6 6 7 8 9
5 6 6 6 7 8 7 6 6 6 6 6 6 6 6 6 7 7 7 8 8 9 9 10 10 10 10 10 10 10 9 8 6 5 5 6 7 7 7 7 7 7
7 7 7 7 8 8 8 7 7 7 7 7 6 6 6 7 7 7 8 8 8 9 9 9 10 10 10 10 10 10 9 8 8 7 7 7 8 8 8 7 6 6
10 9 8 8 7 7 7 7 7 7 7 7 7 8 8 7 6 7 7 7 7 7 7 6 6 6 7 8 9 9 10 10 10 9 8 7 7 7 7 6 6 5
11 11 10 9 9 9 9 9 9 9 8 8 8 9 10 8 7 7 7 7 7 7 6 6 6 7 8 9 10 10 10 11 10 10 9 7 6 6 6 6 5 4
Wind_Direction
196 172 144 139 157 144 124 117 110 106 102 98 94 94 104 113 113 109 104 100 98 94 88 87 88 88 89 89 89 90 91 92 95 95 95 95 96 96 97 96 94 93
206 189 168 163 175 168 151 141 126 117 112 108 106 104 106 112 113 112 108 102 100 93 83 81 84 85 85 85 87 89 91 95 98 98 98 99 100 99 99 98 97 97
216 200 182 177 180 177 170 157 133 115 114 117 118 115 111 112 111 108 102 95 89 82 75 73 72 75 77 78 80 83 88 96 99 99 100 101 100 98 98 99 98 99
234 217 197 186 183 181 177 162 136 108 102 121 137 135 123 117 114 107 103 96 88 83 77 74 71 70 72 75 76 76 79 87 94 96 97 99 100 98 96 94 94 97
239 224 207 195 188 184 181 171 156 138 144 176 174 157 139 132 128 121 120 118 112 107 100 93 86 77 71 72 77 78 76 75 81 89 91 94 97 97 96 92 88 89
234 223 210 203 194 188 187 188 183 172 177 190 187 176 166 157 151 145 138 133 132 130 124 117 104 90 79 68 66 67 67 64 60 71 79 80 86 92 95 91 82 78
235 224 213 207 199 193 193 198 196 189 194 199 193 190 188 178 173 168 155 150 150 147 138 133 119 105 95 79 70 57 50 48 36 34 45 53 62 71 80 86 81 77
237 226 215 209 203 200 200 203 203 198 200 202 198 197 197 190 187 179 169 168 167 166 165 157 153 150 142 130 125 109 89 79 52 34 22 21 38 40 26 46 62 70
233 223 215 210 205 204 206 208 206 197 196 203 201 201 202 195 191 187 181 182 186 194 198 194 191 187 182 190 198 190 174 161 148 112 50 5 356 360 341 324 348 360
229 219 216 215 211 209 210 211 206 201 202 205 205 208 209 203 198 198 198 200 210 225 233 232 228 245 268 266 251 234 223 211 189 172 164 209 302 301 283 257 284 321
229 220 220 223 220 219 220 217 212 210 208 205 208 214 217 216 213 208 209 217 230 240 248 250 254 272 279 272 265 255 249 255 255 234 208 206 233 262 267 261 248 229
227 225 227 232 232 233 235 229 220 217 216 215 217 220 223 227 225 222 227 239 245 247 248 249 252 261 271 273 272 270 270 274 272 262 250 240 239 247 253 258 255 243
221 226 230 236 239 241 240 230 220 219 225 228 228 226 227 228 228 231 238 243 247 251 253 254 256 259 268 278 280 279 281 279 268 257 256 260 260 258 256 257 261 261
213 221 228 234 235 233 230 224 221 223 228 232 233 233 233 232 234 240 243 241 242 246 249 253 259 263 268 274 277 279 280 277 268 259 257 260 265 267 266 265 266 267
207 216 229 236 228 221 221 223 225 227 229 232 235 238 240 242 245 246 244 243 245 249 250 252 259 266 268 265 266 272 275 270 263 258 258 263 270 272 269 265 262 263
206 213 225 233 228 226 229 231 232 231 232 234 236 238 241 244 246 243 243 249 254 257 255 253 257 263 263 260 263 269 269 265 263 264 268 273 277 275 270 265 262 261
215 229 234 237 238 237 237 237 235 234 235 237 239 242 243 242 242 243 246 251 255 256 255 252 253 254 254 256 261 263 263 265 270 273 276 278 278 276 274 271 266 263
222 232 239 243 243 241 239 239 238 236 236 237 240 243 244 241 242 247 250 253 254 254 250 246 245 246 246 248 250 251 255 264 272 275 276 276 275 272 271 268 265 262
240 241 245 248 245 239 235 234 235 235 235 234 236 238 239 239 239 242 244 246 249 246 235 229 231 234 234 233 234 238 247 256 262 266 267 267 267 268 268 267 266 264
242 253 259 260 253 243 236 234 236 239 238 234 230 229 232 233 231 228 228 228 225 214 203 204 212 219 220 221 226 235 246 254 259 262 264 265 265 266 267 267 267 266
195 225 265 268 264 254 243 237 238 239 239 234 224 215 218 220 214 209 206 199 193 194 199 207 217 222 222 227 234 242 250 256 259 263 269 275 275 275 274 271 269 268
231 220 216 223 231 231 226 231 235 231 227 222 206 192 194 197 196 198 198 194 196 208 223 233 237 237 235 236 238 240 244 249 255 266 286 298 302 303 300 292 282 275
262 247 240 238 241 242 236 229 227 220 209 203 199 200 207 213 216 218 219 219 222 229 237 241 242 241 239 238 236 235 239 245 254 268 287 303 311 315 317 315 306 291
264 263 261 253 243 238 234 224 212 203 200 203 212 221 226 226 227 229 227 225 226 230 232 234 236 237 237 237 237 239 244 248 254 264 276 290 302 310 317 319 314 299
251 247 246 242 228 217 218 222 218 211 210 213 212 209 209 210 210 210 210 212 216 220 224 229 235 244 249 251 252 251 250 250 252 257 263 272 285 299 308 312 313 307
230 222 217 219 218 215 218 225 227 223 221 218 208 203 207 214 214 211 214 224 235 245 255 264 269 274 275 274 272 267 260 254 251 252 256 260 266 281 297 307 316 326